Weather Roundup
Issued by NWS Springfield, MO

Home | Current Version | Previous Version | Text Only | Print | Product List | Glossary On
Versions: 1 2 3 4 5 6 7 8 9 10 11 12 13 14 15 16 17 18 19 20 21 22 23 24 25 26 27 28 29 30 31 32 33 34 35 36 37 38 39 40 41 42 43 44 45 46 47 48 49 50
000
NZUS99 KSGF 182207
HRRSGF

HOURLY WEATHER
NATIONAL WEATHER SERVICE SPRINGFIELD MO
500 PM CDT THU SEP 18 2014

......SGF CWA......

CITY           SKY/WX    TMP DP  RH WIND       PRES   REMARKS
SPRINGFIELD    PTSUNNY   72  63  73 SE10      29.98F
JOPLIN         MOSUNNY   76  64  66 SE13      29.95S
WEST PLAINS    CLOUDY    67  60  78 E5        30.02F
ROLLA          CLOUDY    71  59  65 E7        29.99F
OSAGE BEACH    CLOUDY    70  61  73 E6        30.01S
BRANSON        CLOUDY    72  63  73 E9        30.00F

......SURROUNDING SGF CWA......

CITY           SKY/WX    TMP DP  RH WIND       PRES   REMARKS
CHANUTE        MOSUNNY   77  64  64 E10       29.94F
PARSONS        PTSUNNY   76  66  71 VRB6      29.95F
COFFEYVILLE    PTSUNNY   75  65  70 NE13G18   29.92F
EMPORIA        SUNNY     77  66  68 E13       29.94S
GROVE OK       MOSUNNY   81  66  61 E10       29.93F
ROGERS AR      MOSUNNY   75  64  68 E7        29.97F
SILOAM SPRINGS MOSUNNY   79  63  57 E6        29.95S
HARRISON AR    PTSUNNY   71  64  78 E6        29.99F
NEAR YELLVILLE CLOUDY    66  61  82 NE5       29.99S

......KANSAS AND MISSOURI......

CITY           SKY/WX    TMP DP  RH WIND       PRES   REMARKS
KANSAS CTY INT CLOUDY    66  61  84 E9        30.01S
DOWNTOWN KC    CLOUDY    67  61  81 E9        30.00S
COLUMBIA       MOSUNNY   71  59  65 E8        30.01S
SEDALIA        CLOUDY    72  62  71 E9        30.01S
ST JOSEPH      CLOUDY    66  60  81 E8        30.00F
ST LOUIS       MOSUNNY   75  53  46 E13       30.02S
SPIRIT OF STL  MOSUNNY   73  55  53 E7        30.00F
KIRKSVILLE     CLOUDY    69  57  65 E10       30.04F
WICHITA        MOSUNNY   89  54  30 S13       29.90F
TOPEKA         CLOUDY    70  64  81 E10       29.98S
OLATHE         CLOUDY    66  62  87 E9        30.00R

......TENNESSEE......

CITY           SKY/WX    TMP DP  RH WIND       PRES   REMARKS
MEMPHIS        PTSUNNY   81  68  64 NE8       29.92S
NASHVILLE      CLOUDY    75  54  47 E6        29.98F

......ARKANSAS.......

CITY           SKY/WX    TMP DP  RH WIND       PRES   REMARKS
FAYETTEVILLE   MOSUNNY   80  66  62 E6        29.93F
FT SMITH       SUNNY     82  64  54 E9        29.90S
LITTLE ROCK    PTSUNNY   80  67  64 NE10      29.92F

......OKLAHOMA.......

CITY           SKY/WX    TMP DP  RH WIND       PRES   REMARKS
TULSA          MOSUNNY   82  66  58 N12       29.90S
PONCA CITY     SUNNY     88  59  37 CALM      29.88F
MCALESTER      SUNNY     87  65  47 VRB3      29.88S
OKLAHOMA CITY  MOSUNNY   90  64  42 CALM      29.88F HX  91

......IOWA............

CITY           SKY/WX    TMP DP  RH WIND       PRES   REMARKS
DES MOINES     MOSUNNY   73  53  49 SE10      30.02F
QUAD CITIES    SUNNY     72  52  49 E14       30.06S

......ILLINOIS........

CITY           SKY/WX    TMP DP  RH WIND       PRES   REMARKS
QUINCY         SUNNY     73  49  42 E8        30.03F
CHICAGO        MOSUNNY   68  54  60 NE12      30.12S



USA.gov is the U.S. government's official web portal to all federal, state and local government web resources and services.